Temperature
19 20 20 20 20 20 20 20 19 19 19 19 19 19 19 19 19 19 19 19 19 19 19 19 19 19 19 19 19 19 19 19 19 19 19 19 19 19 19 19 19 19 18
20 20 20 20 20 20 20 20 19 19 19 19 19 19 19 19 19 19 19 19 19 19 19 19 19 18 19 19 19 19 19 19 19 19 19 19 19 19 19 19 19 18 19
20 20 20 20 19 19 19 19 19 19 19 19 19 19 19 19 19 19 19 19 19 19 19 18 18 18 18 18 18 18 19 19 19 19 19 19 19 19 19 19 19 19 19
20 20 20 20 19 19 19 19 19 19 19 19 19 19 19 19 18 18 18 18 18 18 18 18 18 18 18 18 18 18 18 19 19 19 19 19 19 19 19 19 18 18 18
20 20 20 20 19 19 19 19 19 19 19 19 19 19 18 18 18 18 18 18 18 18 18 18 18 18 18 18 18 18 18 18 18 19 19 19 19 19 19 19 18 18 18
20 20 20 20 19 19 19 19 19 19 19 19 19 18 18 18 18 18 18 18 18 18 18 18 18 18 18 18 18 18 18 18 18 18 18 18 18 18 18 19 18 18 18
20 20 20 20 19 19 19 19 19 19 19 19 19 18 18 18 18 18 18 18 18 18 18 18 18 18 18 18 18 18 18 18 18 18 18 18 18 18 18 18 18 18 18
20 20 20 19 19 19 19 19 19 19 19 19 19 18 18 18 18 18 18 18 18 18 18 18 18 18 18 18 18 18 18 18 18 18 18 18 18 18 18 18 18 18 18
20 20 20 19 19 19 19 19 19 19 19 18 18 18 18 18 18 18 18 18 18 18 18 18 18 18 18 18 18 17 17 18 18 18 18 18 18 18 18 18 18 18 18
20 20 20 19 19 19 19 19 19 19 18 18 18 18 18 18 18 18 18 18 18 18 18 18 18 18 18 18 17 17 17 17 17 17 18 18 18 18 18 18 18 18 18
20 20 20 19 19 19 19 19 19 19 18 18 18 18 18 18 18 18 18 18 18 18 18 18 18 18 18 17 17 17 17 17 17 17 17 18 18 18 18 18 18 18 18
20 20 20 20 19 19 19 19 19 19 19 18 18 18 18 18 18 18 18 18 18 18 18 17 17 17 17 17 17 17 17 17 17 17 17 18 18 18 18 18 18 18 18
21 21 20 20 20 20 19 19 19 19 19 18 18 18 18 18 18 18 18 18 18 18 18 17 17 17 17 17 17 17 17 17 17 17 17 17 18 18 18 18 18 18 17
21 21 21 20 20 20 20 19 19 19 19 18 18 18 18 18 17 18 18 18 18 18 18 17 17 17 17 17 16 17 17 17 17 17 17 17 17 17 17 17 17 17 17
21 21 21 21 21 21 20 20 19 19 19 19 18 17 17 18 17 17 18 18 18 18 18 17 17 17 17 17 16 17 17 17 17 17 17 17 17 17 17 17 17 17 17
22 22 21 21 21 21 21 20 20 20 19 19 18 18 17 17 17 17 17 18 18 18 17 17 17 17 17 17 17 17 17 17 17 17 17 17 17 17 17 17 17 17 17
23 22 22 22 21 21 21 21 21 20 20 19 19 18 18 17 17 17 17 17 17 17 17 17 17 17 17 17 17 17 17 17 17 17 17 17 16 16 16 16 16 16 16
23 23 23 22 22 22 21 21 21 20 20 19 19 18 18 18 17 17 17 17 17 17 17 17 17 17 17 17 17 17 16 16 16 16 16 16 16 16 16 16 16 16 16
24 23 23 23 23 22 21 21 21 20 20 19 19 18 18 18 18 18 18 18 17 17 17 17 17 17 17 17 17 16 16 16 16 16 16 16 16 16 16 16 16 16 17
24 24 23 23 23 22 21 21 20 20 20 19 19 19 19 18 18 18 18 18 17 17 17 17 17 17 17 17 16 16 16 16 16 16 16 16 16 16 16 16 17 17 17
24 24 23 23 22 22 21 21 20 20 20 20 19 19 19 18 18 18 18 18 17 17 17 17 17 17 17 17 16 16 16 16 16 16 16 16 16 16 16 16 16 16 16
25 24 24 23 22 22 21 21 20 20 20 19 19 19 19 19 18 18 18 18 17 17 17 17 17 17 17 16 16 16 15 15 15 15 15 16 16 16 16 16 16 16 16
24 24 24 23 22 22 21 20 20 19 19 19 19 18 18 18 18 18 18 17 17 17 17 17 17 17 17 16 16 16 16 16 15 15 15 15 15 16 16 16 16 16 16
24 23 23 23 22 21 21 20 20 19 19 19 18 18 18 18 17 17 17 17 17 17 17 17 17 17 17 16 16 16 16 16 16 15 15 15 15 15 15 15 15 16 16
23 23 23 22 22 21 21 20 20 19 19 18 18 18 17 17 17 17 17 17 17 17 17 17 17 17 16 16 16 16 16 16 16 16 16 16 15 15 15 15 15 15 16
22 22 22 22 22 22 21 21 20 19 19 18 18 18 18 17 17 17 17 17 17 16 16 16 16 16 16 16 16 16 16 16 16 16 16 16 16 16 15 15 15 15 16
Wind_Speed
7 9 17 15 14 14 13 13 13 13 13 13 13 13 14 14 14 13 13 13 13 12 12 11 11 11 11 11 11 11 12 13 12 11 10 8 8 6 5 7 8 6 7
12 13 18 16 14 14 13 13 13 13 14 13 13 14 14 14 13 13 12 12 12 11 11 11 10 10 10 10 10 11 11 12 12 11 9 8 7 7 8 9 8 7 8
15 14 17 16 15 14 13 13 13 13 14 14 14 14 14 14 13 12 11 11 11 11 11 11 11 11 10 10 10 10 10 9 9 9 8 6 6 7 8 9 9 9 10
16 15 15 16 15 14 13 13 13 13 14 14 14 14 14 13 12 11 11 11 11 10 10 10 11 11 10 10 9 9 9 7 6 8 7 6 5 7 8 9 9 10 10
14 14 15 17 15 14 14 13 13 13 13 13 13 14 13 13 12 11 10 10 11 10 10 10 10 10 10 9 8 9 9 7 9 10 9 7 6 7 8 8 9 9 9
14 14 16 17 15 14 14 13 13 13 13 13 13 13 13 13 11 10 10 10 10 10 10 9 9 9 8 8 8 8 9 9 10 10 9 8 6 8 8 8 8 8 9
12 12 15 16 15 14 13 13 13 13 13 12 13 13 13 12 11 10 10 9 9 9 9 8 8 7 6 6 7 8 8 9 10 9 8 7 7 8 8 8 8 8 9
14 12 14 16 15 14 13 13 13 13 13 13 13 13 13 12 11 10 9 9 9 9 9 8 7 6 4 4 5 7 9 8 9 8 7 6 8 9 8 8 8 8 8
13 11 9 12 13 14 14 13 13 13 13 13 14 13 13 12 11 10 9 9 9 9 10 8 6 4 2 2 4 5 7 8 9 7 7 6 9 9 8 8 7 8 8
11 11 8 9 11 11 12 13 14 14 14 14 14 14 13 12 11 10 9 9 10 10 10 8 6 4 1 1 2 5 8 10 10 7 6 7 8 9 8 8 8 8 8
11 9 10 8 8 10 11 12 13 14 14 14 14 14 13 10 9 9 8 9 9 9 8 7 5 3 1 1 3 5 7 9 9 7 6 7 7 7 7 7 7 7 7
12 12 10 10 9 9 10 10 10 10 12 12 11 12 11 10 9 8 10 9 9 8 7 5 3 1 1 3 5 6 8 10 8 6 6 7 6 6 6 6 6 6 6
15 15 14 12 10 8 6 8 7 8 9 10 11 12 11 8 7 7 7 6 6 6 4 3 3 3 2 2 4 6 9 8 7 6 6 6 5 6 6 6 6 6 6
14 15 15 15 12 10 8 7 7 6 6 6 10 12 9 5 5 5 5 5 5 5 4 3 3 4 4 3 5 7 8 7 7 7 7 8 7 7 6 6 6 6 6
15 15 16 16 15 13 10 8 7 6 7 9 10 12 12 6 6 4 4 6 7 6 4 3 2 2 4 6 8 8 7 7 8 8 8 8 7 7 8 9 9 8 7
16 16 16 17 16 14 11 10 9 8 9 9 10 13 15 11 7 6 5 4 6 7 6 3 3 4 5 6 6 7 7 8 8 9 10 10 9 9 9 9 9 9 8
18 17 17 17 16 16 14 12 10 8 9 7 9 13 15 15 12 8 7 6 6 9 6 4 4 5 6 6 7 6 5 6 7 8 10 11 11 11 10 10 10 9 8
16 17 18 17 17 16 14 12 9 7 7 6 8 10 13 16 16 10 8 7 9 8 5 5 5 5 5 6 5 5 4 4 5 6 8 9 9 10 11 11 10 9 8
18 18 19 16 17 16 13 10 8 7 7 5 6 7 9 12 14 10 8 7 9 5 5 7 5 5 5 5 5 5 5 5 5 5 4 6 8 9 9 9 9 9 8
17 17 18 14 15 13 9 6 5 6 6 5 5 6 8 8 9 8 6 8 7 6 6 6 6 5 5 5 5 4 3 4 4 5 5 5 6 8 8 8 8 8 8
15 15 14 13 12 10 7 7 6 6 6 6 6 7 8 7 7 5 6 7 7 7 8 8 5 6 4 3 4 3 3 3 3 4 4 4 4 7 7 7 6 7 7
14 13 12 11 11 11 8 6 4 4 4 5 5 6 8 7 7 6 7 7 7 7 8 8 6 5 3 3 4 4 2 2 2 1 3 5 5 5 6 7 7 6 6
12 12 11 10 10 10 9 6 5 4 3 2 4 5 6 7 7 6 7 7 7 7 8 8 8 8 5 3 3 4 4 4 2 2 2 3 5 4 4 7 9 8 7
11 10 10 10 10 10 10 9 8 6 5 6 5 6 6 6 6 7 7 7 7 6 7 8 8 6 8 5 3 2 3 4 4 2 2 2 4 5 5 4 8 11 10
12 11 9 10 9 9 8 9 8 5 4 3 3 5 5 5 5 6 7 7 7 7 8 7 7 7 6 6 5 3 2 2 2 3 3 3 2 3 4 5 6 10 12
12 11 8 8 7 7 8 8 7 7 5 4 4 4 4 3 4 6 6 7 7 6 7 8 8 8 7 7 6 5 5 4 3 3 3 3 4 4 4 4 5 8 12
Wind_Direction
155 168 159 154 145 136 128 123 121 123 125 122 119 115 110 106 102 97 92 88 84 83 84 87 93 97 101 103 104 108 109 108 106 105 103 99 95 87 84 113 113 112 107
154 164 160 156 149 141 133 128 126 126 127 126 123 119 115 111 107 101 96 91 86 84 84 87 91 97 101 105 104 101 101 106 110 109 102 96 99 95 91 104 114 113 106
150 160 159 158 153 146 140 135 131 130 130 130 128 125 121 118 114 109 105 100 96 92 88 88 90 94 97 98 98 93 92 100 112 118 112 109 111 110 107 106 110 109 106
150 155 158 160 156 151 147 141 136 134 134 133 132 131 128 125 121 117 113 110 106 102 96 93 92 93 94 94 93 91 88 93 117 135 139 142 130 120 112 106 107 109 110
148 152 158 159 157 156 152 147 142 139 138 137 136 136 135 131 127 122 120 116 113 110 105 99 95 93 93 94 91 87 83 90 113 120 130 132 129 125 116 108 108 112 116
149 152 158 158 159 159 156 152 149 146 144 142 141 141 141 137 132 127 124 121 118 115 111 105 99 94 91 88 81 73 74 94 110 116 122 126 129 127 116 110 110 114 118
147 153 159 159 160 161 160 159 155 153 151 149 146 145 145 142 138 132 128 128 127 122 118 116 109 102 94 84 71 60 67 105 112 113 117 122 129 127 119 115 114 117 119
148 153 158 160 160 162 162 162 160 158 157 155 151 149 149 147 143 137 133 134 133 129 129 127 121 115 101 74 63 61 66 101 116 112 110 116 122 118 117 118 118 120 123
147 150 151 158 161 163 163 163 162 160 160 158 154 154 153 151 147 143 141 142 139 137 138 140 142 139 121 47 48 55 66 106 124 113 108 109 113 110 111 113 113 115 120
148 153 153 154 157 158 163 164 162 162 162 161 160 159 157 155 152 150 149 151 148 146 147 152 158 160 177 344 26 51 75 110 119 102 98 104 106 108 109 108 108 109 112
157 160 162 161 159 157 159 166 164 164 166 164 163 163 158 153 152 153 160 163 158 156 155 160 168 169 176 353 12 50 88 111 111 103 100 106 107 109 110 109 110 110 113
170 172 171 170 165 162 166 155 158 161 163 161 163 161 156 158 163 168 174 173 171 169 167 172 188 227 345 15 18 55 106 115 107 101 105 109 113 114 112 111 113 116 119
176 176 177 175 170 169 156 153 156 157 162 165 168 165 163 168 176 171 177 182 185 184 180 196 226 252 274 353 51 83 108 106 99 89 100 110 119 124 121 121 119 124 129
178 180 177 176 173 172 161 165 166 166 174 177 182 177 168 167 168 175 184 191 199 206 207 218 219 234 232 191 116 107 105 103 98 88 90 100 111 119 119 119 118 121 127
181 181 176 172 172 172 167 171 174 177 186 190 187 187 180 172 176 183 192 200 212 217 215 218 216 179 151 139 126 121 112 106 100 91 89 94 101 112 113 109 105 105 110
184 182 177 173 173 171 174 177 179 183 188 192 192 191 187 183 182 185 194 203 218 219 214 197 177 138 124 123 125 125 122 117 106 98 92 89 92 100 107 106 103 101 101
185 183 180 178 175 175 179 181 181 185 186 190 196 195 189 186 190 189 194 201 217 222 202 164 149 124 117 122 127 133 130 124 115 108 102 94 90 91 98 99 95 93 93
180 182 183 183 180 181 182 184 182 182 181 189 196 196 192 189 192 191 194 199 207 208 177 157 148 128 124 129 133 140 137 133 130 128 116 108 100 94 91 92 89 85 82
180 181 184 184 182 184 182 182 176 173 177 178 186 191 196 195 193 190 195 196 192 184 178 167 154 142 139 140 139 131 132 146 158 154 142 132 125 117 104 95 86 79 76
180 181 185 185 180 177 171 162 155 162 171 170 187 197 199 197 196 194 200 195 180 176 178 166 154 147 148 152 136 110 110 140 158 163 169 163 155 146 133 117 100 85 79
178 178 180 180 175 166 161 162 162 177 181 185 202 205 204 200 197 188 203 197 185 183 180 161 147 142 137 128 101 73 28 53 120 157 163 163 177 174 158 148 131 113 93
174 174 172 172 166 165 165 163 163 161 179 192 203 209 211 206 193 189 192 200 192 183 174 164 150 138 144 143 134 116 71 0 352 120 171 175 183 180 180 179 160 141 123
155 163 165 157 149 147 144 135 121 105 97 155 213 220 219 209 193 184 182 193 196 183 183 177 163 150 158 169 150 146 154 197 240 298 224 196 182 182 191 182 181 174 154
139 141 139 134 130 134 138 144 151 163 177 195 198 211 216 201 191 186 184 186 188 188 189 191 175 160 154 166 172 168 157 153 151 197 287 260 214 195 192 180 178 180 174
131 125 125 124 126 132 137 145 147 155 176 178 182 203 215 208 194 188 187 186 185 187 191 191 180 170 167 169 171 166 159 145 128 143 206 247 256 233 205 182 170 173 177
117 110 114 124 129 135 138 144 152 161 166 168 188 202 212 208 194 189 188 192 190 187 189 191 188 183 189 182 178 171 166 163 166 153 176 205 219 237 215 193 178 176 180
Height
1511 1513 1515 1517 1518 1519 1520 1521 1522 1523 1523 1524 1525 1526 1526 1527 1528 1528 1529 1529 1530 1530 1530 1530 1530 1530 1531 1531 1531 1532 1532 1533 1533 1534 1536 1536 1536 1537 1538 1538 1538 1538 1538
1510 1512 1515 1517 1518 1519 1520 1521 1522 1523 1523 1524 1525 1526 1527 1528 1529 1529 1530 1530 1530 1531 1531 1531 1531 1531 1531 1532 1532 1532 1533 1533 1534 1535 1536 1537 1537 1538 1539 1539 1539 1539 1538
1510 1512 1514 1516 1518 1519 1520 1521 1522 1523 1523 1524 1525 1526 1527 1528 1529 1529 1530 1530 1531 1531 1531 1531 1532 1532 1532 1533 1533 1533 1534 1534 1535 1536 1537 1538 1538 1539 1540 1540 1540 1540 1540
1511 1512 1514 1516 1518 1519 1520 1521 1522 1523 1524 1525 1526 1527 1528 1528 1529 1530 1530 1530 1531 1531 1532 1532 1533 1533 1533 1534 1534 1534 1535 1535 1536 1537 1537 1538 1539 1540 1541 1541 1541 1541 1541
1511 1513 1515 1516 1517 1519 1520 1521 1522 1523 1524 1525 1526 1527 1528 1529 1529 1530 1530 1531 1531 1532 1532 1533 1534 1534 1534 1535 1535 1535 1536 1537 1537 1538 1538 1539 1540 1541 1541 1541 1541 1542 1542
1511 1513 1515 1516 1517 1518 1519 1521 1522 1523 1524 1525 1526 1527 1528 1529 1530 1530 1531 1531 1532 1532 1533 1534 1535 1535 1536 1536 1536 1537 1537 1538 1538 1538 1539 1540 1540 1541 1541 1541 1542 1542 1543
1511 1513 1514 1516 1517 1518 1519 1520 1522 1523 1524 1525 1526 1527 1528 1529 1530 1531 1531 1531 1532 1533 1534 1534 1535 1536 1537 1537 1538 1538 1538 1538 1538 1539 1539 1540 1540 1541 1541 1542 1542 1543 1543
1511 1512 1514 1515 1517 1518 1519 1520 1521 1523 1524 1525 1526 1528 1528 1529 1530 1531 1531 1532 1532 1533 1534 1535 1536 1537 1538 1538 1539 1539 1539 1539 1539 1540 1540 1540 1541 1541 1542 1542 1543 1543 1543
1512 1512 1514 1515 1516 1517 1519 1520 1521 1523 1524 1525 1527 1528 1529 1530 1531 1531 1532 1532 1533 1534 1535 1536 1536 1537 1538 1539 1539 1539 1539 1540 1540 1540 1541 1541 1541 1541 1542 1543 1543 1543 1544
1512 1513 1514 1515 1516 1517 1519 1520 1521 1523 1524 1525 1527 1528 1529 1530 1531 1532 1532 1533 1534 1534 1535 1536 1537 1537 1538 1539 1540 1540 1540 1540 1540 1541 1541 1541 1541 1542 1542 1543 1543 1544 1544
1513 1513 1514 1515 1516 1517 1519 1520 1521 1523 1524 1525 1527 1528 1530 1530 1531 1532 1533 1533 1534 1535 1536 1537 1537 1538 1538 1539 1540 1540 1540 1540 1541 1541 1541 1541 1542 1542 1543 1543 1543 1544 1545
1511 1513 1514 1515 1516 1517 1518 1520 1521 1522 1524 1525 1527 1528 1530 1531 1532 1533 1533 1534 1535 1536 1537 1538 1539 1539 1539 1540 1540 1541 1541 1541 1541 1541 1541 1541 1541 1542 1543 1543 1544 1544 1545
1508 1510 1512 1513 1515 1517 1518 1519 1521 1522 1524 1525 1527 1528 1530 1531 1532 1533 1533 1534 1535 1537 1538 1538 1539 1540 1540 1541 1541 1541 1541 1541 1541 1541 1541 1541 1542 1542 1543 1543 1544 1544 1545
1506 1508 1510 1512 1514 1516 1517 1519 1520 1522 1523 1524 1526 1528 1530 1531 1532 1533 1534 1535 1536 1537 1538 1539 1539 1539 1540 1541 1541 1541 1541 1541 1541 1541 1541 1542 1543 1543 1543 1544 1544 1544 1545
1504 1506 1508 1510 1512 1514 1516 1518 1519 1521 1522 1524 1525 1527 1529 1530 1531 1533 1534 1536 1537 1538 1538 1539 1539 1539 1540 1541 1541 1542 1542 1541 1541 1541 1542 1542 1543 1543 1544 1544 1545 1545 1545
1502 1504 1505 1507 1510 1513 1515 1516 1518 1519 1521 1523 1525 1526 1527 1529 1531 1533 1534 1536 1537 1538 1539 1539 1539 1540 1540 1541 1542 1542 1542 1542 1542 1542 1542 1543 1543 1544 1544 1545 1545 1546 1546
1499 1501 1503 1505 1508 1510 1513 1515 1516 1518 1520 1522 1523 1525 1526 1528 1530 1532 1534 1535 1536 1538 1538 1539 1540 1540 1541 1541 1542 1542 1543 1543 1543 1543 1543 1544 1544 1545 1545 1546 1546 1546 1546
1496 1498 1501 1503 1505 1508 1510 1513 1515 1516 1518 1520 1522 1523 1525 1526 1528 1530 1532 1533 1535 1536 1538 1539 1540 1540 1541 1541 1542 1542 1543 1543 1544 1544 1545 1545 1545 1546 1546 1546 1547 1547 1547
1492 1495 1498 1500 1502 1505 1508 1510 1513 1515 1516 1518 1520 1521 1522 1524 1526 1528 1529 1531 1533 1535 1536 1537 1539 1540 1541 1541 1542 1542 1543 1543 1544 1544 1545 1545 1546 1546 1547 1547 1547 1547 1547
1489 1492 1495 1497 1499 1502 1505 1508 1510 1512 1514 1516 1517 1519 1520 1521 1523 1525 1527 1529 1530 1532 1534 1535 1537 1538 1540 1541 1542 1543 1543 1543 1543 1544 1545 1545 1546 1546 1547 1547 1547 1548 1548
1486 1489 1492 1494 1497 1500 1502 1505 1507 1509 1511 1513 1514 1516 1518 1519 1520 1522 1524 1526 1527 1529 1531 1533 1535 1536 1538 1540 1541 1542 1543 1543 1543 1544 1544 1545 1546 1546 1547 1547 1548 1548 1548
1482 1485 1489 1492 1494 1497 1499 1502 1505 1507 1508 1510 1512 1513 1515 1516 1517 1519 1521 1522 1523 1525 1527 1529 1531 1533 1535 1537 1538 1540 1541 1543 1543 1543 1544 1545 1545 1546 1547 1547 1547 1548 1549
1478 1483 1486 1489 1492 1495 1498 1500 1503 1504 1505 1506 1507 1509 1511 1512 1514 1516 1517 1518 1520 1522 1523 1525 1527 1529 1532 1534 1536 1538 1539 1539 1541 1542 1543 1544 1545 1545 1546 1546 1547 1548 1548
1476 1481 1485 1488 1491 1494 1496 1498 1499 1500 1501 1502 1504 1505 1507 1509 1511 1512 1513 1515 1516 1518 1519 1521 1523 1525 1528 1530 1532 1534 1537 1537 1538 1539 1541 1542 1543 1544 1545 1545 1546 1547 1548
1475 1480 1484 1487 1490 1492 1494 1495 1496 1497 1498 1500 1501 1502 1504 1506 1507 1509 1510 1511 1512 1513 1515 1517 1519 1521 1524 1526 1528 1530 1533 1534 1535 1536 1538 1539 1541 1542 1543 1544 1544 1545 1546
1474 1479 1484 1487 1489 1490 1492 1493 1494 1495 1496 1497 1499 1500 1502 1503 1504 1505 1506 1507 1508 1509 1511 1513 1514 1516 1519 1522 1524 1526 1528 1530 1531 1533 1535 1536 1538 1540 1541 1542 1543 1544 1545